Flag for Switzerland Weather past 2 weeks in Grenchen, Solothurn, Switzerland

Now
43 °F

Quite cool.


Feels Like: 37 °F
Forecast: 27 / 46 °F
Wind: 13 mph from Northeast

Location: Grenchen

Current Time: Mar 5, 2015 at 5:40:31 PM

Latest Report: Mar 5, 2015 at 5:00 PM


Visibility: N/A

Pressure: 30.58 "Hg

Humidity: 49%

Dew point: 25 °F

Location of GrenchenLocation

Historic Weather in Grenchen — Graph

°F

Grenchen temperature yesterday

Maximum temperature yesterday: 44 °F (at 12:00 AM)
Minimum temperature yesterday: 35 °F (at 9:00 PM)
Average temperature yesterday: 40 °F

Past Weeks' High & Low Weather Summary

 TemperatureHumidityPressure
High51 °F (Mar 3, 4:00 PM)100% (Feb 20, 1:00 AM)30.70 "Hg (Feb 20, 1:00 AM)
Low25 °F (Feb 20, 6:00 AM)43% (Feb 26, 4:00 PM)29.63 "Hg (Feb 21, 9:00 AM)
Average37 °F84%30.11 "Hg
* Reported Feb 18 4:00 PM — Mar 5 4:00 PM, Grenchen, Weather by CustomWeather, © 2015

Note: Actual official high and low records may vary slightly from our data, if they occured in-between our weather recording intervals... More about our weather records

Advertising

Grenchen weather history for previous 24 hours

 ConditionsComfort  
Time TempWeatherWind HumidityBarometerVisibility
4:00 PM
Thu, Mar 5
44 °FQuite cool.10 mph50%30.58 "HgN/A
3:00 PM43 °FQuite cool.12 mph49%30.58 "HgN/A
2:00 PM43 °FQuite cool.12 mph49%30.60 "HgN/A
1:00 PM41 °FQuite cool.12 mph55%30.61 "HgN/A
12:00 PM41 °FQuite cool.9 mph59%30.62 "HgN/A
11:00 AM40 °FChilly.12 mph61%30.62 "HgN/A
10:00 AM38 °FChilly.16 mph60%30.62 "HgN/A
9:00 AM37 °FChilly.12 mph65%30.61 "HgN/A
8:00 AM37 °FChilly.14 mph63%30.60 "HgN/A
7:00 AM37 °FChilly.14 mph67%30.59 "HgN/A
6:00 AM34 °FChilly.2 mph83%30.59 "HgN/A
5:00 AM35 °FChilly.3 mph80%30.58 "HgN/A
3:00 AM35 °FChilly.1 mph94%30.57 "HgN/A
2:00 AM35 °FChilly.2 mph92%30.57 "HgN/A
1:00 AM36 °FChilly.7 mph79%30.55 "HgN/A
12:00 AM36 °FChilly.6 mph75%30.54 "HgN/A
11:00 PM
Wed, Mar 4
37 °FChilly.1 mph72%30.53 "HgN/A
10:00 PM36 °FChilly.2 mph75%30.51 "HgN/A
9:00 PM35 °FChilly.1 mph80%30.50 "HgN/A
8:00 PM36 °FChilly.3 mph71%30.47 "HgN/A
7:00 PM39 °FChilly.7 mph58%30.44 "HgN/A
6:00 PM40 °FQuite cool.3 mph54%30.41 "HgN/A
5:00 PM42 °FQuite cool.7 mph57%30.38 "HgN/A
Weather by CustomWeather, © 2015

See weather overviewHow to use our weather pages